Fort Lewis, WA
on Monday, February 11, 2013

Monday
Previous Day Next Day
Daily Summary
 ActualAverage (KOLM)Record (KOLM)
Temperature
Mean Temperature °F 41°F  
Max Temperature 45°F 49°F 67°F (1963)
Min Temperature 33°F 33°F 18°F (1948)
Degree Days
Heating Degree Days 26 24  
Month to date heating degree days 265  
Since 1 July heating degree days 3316  
Cooling Degree Days 0 0  
Month to date cooling degree days 0  
Year to date cooling degree days 0  
Moisture
Dew Point 40°F   
Average Humidity 91    
Maximum Humidity 100    
Minimum Humidity 71    
Precipitation
Precipitation 0.03 in 0.20 in 0.93 in (1975)
Month to date precipitation 2.23  
Year to date precipitation 10.07  
Wind
Wind Speed 3 mph   
Max Wind Speed 7 mph   
Max Gust Speed mph   
Visibility 6 miles   
Events     

Key: T is trace of precipitation, MM is missing value
Source: NWS Daily Summary
Time(PST)TemperatureDew PointHumidity Pressure Visibility Wind DirectionWind SpeedGust SpeedPrecipitationEvents Conditions
12:03 AM 41.0°F 37.4°F 87% 30.33 in 10.0 miles WNW 1.2 mph - N/A   Overcast
12:58 AM 40.6°F 37.0°F 87% 30.36 in 10.0 miles WNW 1.2 mph - N/A   Overcast
1:58 AM 40.3°F 37.0°F 88% 30.36 in 10.0 miles Calm Calm - N/A   Overcast
2:58 AM 39.4°F 37.0°F 91% 30.35 in 10.0 miles WNW 2.3 mph - N/A   Overcast
3:58 AM 39.4°F 37.2°F 92% 30.35 in 10.0 miles WNW 2.3 mph - N/A   Overcast
4:08 AM 39.2°F 37.4°F 93% 30.33 in 10.0 miles Calm Calm - N/A   Overcast
4:58 AM 39.0°F 37.2°F 93% 30.36 in 10.0 miles Calm Calm - N/A   Overcast
5:58 AM 37.9°F 36.3°F 94% 30.35 in 10.0 miles WNW 2.3 mph - N/A   Overcast
6:58 AM 36.5°F 36.0°F 98% 30.35 in 10.0 miles WNW 2.3 mph - N/A   Overcast
7:58 AM 33.8°F 33.3°F 98% 30.36 in 10.0 miles WNW 3.5 mph - N/A   Partly Cloudy
8:58 AM 37.4°F 37.2°F 99% 30.36 in 10.0 miles WNW 4.6 mph - N/A   Scattered Clouds
9:58 AM 44.1°F 37.8°F 78% 30.37 in 10.0 miles NW 2.3 mph - N/A   Mostly Cloudy
10:58 AM 44.8°F 36.7°F 73% 30.37 in 10.0 miles WNW 6.9 mph - N/A   Overcast
11:43 AM 44.6°F 35.6°F 71% 30.34 in 10.0 miles WNW 3.5 mph - N/A   Overcast
11:58 AM 45.0°F 36.9°F 73% 30.36 in 10.0 miles WNW 5.8 mph - N/A   Overcast
12:58 PM 45.5°F 37.2°F 73% 30.35 in 10.0 miles NW 5.8 mph - N/A   Overcast
1:58 PM 45.3°F 38.3°F 76% 30.35 in 10.0 miles NW 3.5 mph - N/A   Overcast
2:58 PM 44.4°F 40.5°F 86% 30.34 in 10.0 miles NW 4.6 mph - N/A   Overcast
3:08 PM 44.6°F 41.0°F 87% 30.33 in 10.0 miles NW 4.6 mph - N/A   Overcast
3:23 PM 44.6°F 41.0°F 87% 30.33 in 5.0 miles NW 3.5 mph - N/A   Overcast
3:33 PM 44.6°F 42.8°F 93% 30.33 in 3.0 miles NW 4.6 mph - N/A   Overcast
3:58 PM 43.9°F 42.6°F 95% 30.35 in 6.0 miles NW 2.3 mph - N/A   Overcast
4:58 PM 43.7°F 43.2°F 98% 30.34 in 6.0 miles NW 4.6 mph - N/A   Overcast
5:01 PM 44.6°F 42.8°F 93% 30.32 in 2.0 miles NW 4.6 mph - N/A   Overcast
5:38 PM 44.6°F 42.8°F 93% 30.33 in 1.0 miles NW 4.6 mph - N/A   Overcast
5:58 PM 43.7°F 43.3°F 99% 30.35 in 1.0 miles NW 3.5 mph - 0.01 in   Overcast
6:23 PM 44.6°F 42.8°F 93% 30.33 in 1.0 miles NW 2.3 mph - N/A   Overcast
6:48 PM 44.6°F 42.8°F 93% 30.33 in 1.0 miles Calm Calm - N/A   Overcast
6:58 PM 43.5°F 43.3°F 99% 30.35 in 1.0 miles NW 2.3 mph - N/A   Overcast
7:18 PM 42.8°F 42.8°F 100% 30.33 in 1.0 miles NW 4.6 mph - N/A   Overcast
7:43 PM 42.8°F 42.8°F 100% 30.33 in 1.0 miles NW 5.8 mph - N/A   Overcast
7:58 PM 43.5°F 43.2°F 99% 30.35 in 1.0 miles NW 4.6 mph - 0.01 in   Overcast
8:13 PM 42.8°F 42.8°F 100% 30.33 in 1.0 miles NW 3.5 mph - N/A   Overcast
8:38 PM 42.8°F 42.8°F 100% 30.33 in 1.0 miles NW 4.6 mph - N/A   Overcast
8:58 PM 44.6°F 42.8°F 93% 30.35 in 1.0 miles NW 5.8 mph - 0.01 in   Overcast
9:16 PM 44.6°F 42.8°F 93% 30.31 in 2.0 miles NW 5.8 mph - N/A   Overcast
9:33 PM 44.6°F 42.8°F 93% 30.32 in 2.0 miles NW 4.6 mph - N/A   Overcast
9:37 PM 44.6°F 42.8°F 93% 30.32 in 3.0 miles NW 3.5 mph - N/A   Overcast
9:58 PM 43.9°F 43.7°F 99% 30.35 in 10.0 miles NW 2.3 mph - N/A   Overcast
10:03 PM 44.6°F 42.8°F 93% 30.33 in 10.0 miles NW 2.3 mph - N/A   Overcast
10:58 PM 44.2°F 43.9°F 99% 30.37 in 10.0 miles NW 2.3 mph - N/A   Overcast
11:58 PM 43.9°F 43.7°F 99% 30.37 in 10.0 miles NW 5.8 mph - N/A   Overcast
Moon Phase
Feb. 11 Feb. 17 Feb. 25 Mar. 04 Mar. 11
Sunrise:07:20 AM (PST) Moon Rise:07:38 AM (PST)2/11
Sunset:05:29 PM (PST) Moon Set:07:43 PM (PST)2/11

Copyright © 2014 The Weather Underground, Inc.